Weather History for Fremont, NE

Change the Weather History Date:

Monday, May 5, 2014

  Actual Average Record
Temperature  
Mean Temperature 58 °F -  
Max Temperature 74 °F 73 °F 95 °F (1966)
Min Temperature 43 °F 48 °F 31 °F (1968)
Degree Days  
Heating Degree Days 6    
Growing Degree Days 8 (Base 50)    
Moisture  
Dew Point 39 °F    
Average Humidity 48    
Maximum Humidity 84    
Minimum Humidity 27    
Precipitation  
Precipitation 0.00 in - - ()
Sea Level Pressure  
Sea Level Pressure 29.82 in    
Wind  
Wind Speed 8 mph (NE)    
Max Wind Speed 14 mph    
Max Gust Speed 21 mph    
Visibility 10 miles    
Events      
Averages and records for this station are not official NWS values.
T = Trace of Precipitation, MM = Missing Value Source: NWS Daily Summary

Daily Weather History Graph

Daily Weather History Graph

Search for Another Location

Airport:

Trip Planner

Search our weather history database for the weather conditions in past years. The results will help you decide how hot, cold, wet, or windy it might be!

Date:

Astronomy

May. 05, 2014 Rise Set
Actual Time 6:18 AM CDT 8:28 PM CDT
Civil Twilight 5:47 AM CDT 8:58 PM CDT
Nautical Twilight 5:10 AM CDT 9:36 PM CDT
Astronomical Twilight 4:29 AM CDT 10:17 PM CDT
Moon 11:39 AM CDT (5/5) 1:12 AM CDT (5/5)
Length of Visible Light 15h 11m
Length of Day
14h 09m
Waxing Crescent, 37% of the Moon is Illuminated
May 5
Waxing Crescent
May 6
First Quarter
May 14
Full
May 21
Last Quarter
May 28
New

Hourly Weather History & Observations

Time (CDT) Temp. Windchill Dew Point Humidity Pressure Visibility Wind Dir Wind Speed Gust Speed Precip Events Conditions
12:15 AM 54.1 °F - 41.0 °F 61% 29.83 in 10.0 mi NNE 5.8 mph - N/A   Clear
12:35 AM 53.1 °F - 41.0 °F 64% 29.84 in 10.0 mi NE 6.9 mph - N/A   Clear
12:55 AM 52.9 °F - 41.0 °F 64% 29.83 in 10.0 mi NE 6.9 mph - N/A   Clear
1:15 AM 53.4 °F - 40.6 °F 62% 29.84 in 10.0 mi NE 10.4 mph - N/A   Clear
1:35 AM 53.6 °F - 40.3 °F 61% 29.84 in 10.0 mi NE 8.1 mph - N/A   Clear
2:15 AM 52.9 °F - 40.1 °F 62% 29.83 in 10.0 mi NE 8.1 mph - N/A   Clear
2:35 AM 52.9 °F - 40.1 °F 62% 29.82 in 10.0 mi NE 9.2 mph - N/A   Clear
2:55 AM 52.2 °F - 40.1 °F 64% 29.81 in 10.0 mi NE 9.2 mph - N/A   Clear
3:15 AM 51.8 °F - 40.1 °F 64% 29.81 in 10.0 mi NE 6.9 mph - N/A   Clear
3:35 AM 51.1 °F - 40.1 °F 66% 29.84 in 10.0 mi North 3.5 mph - N/A   Clear
3:55 AM 50.5 °F - 40.1 °F 67% 29.84 in 10.0 mi NNE 4.6 mph - N/A   Clear
4:15 AM 49.6 °F - 40.1 °F 70% 29.82 in 10.0 mi NE 5.8 mph - N/A   Clear
4:35 AM 49.1 °F - 39.7 °F 70% 29.81 in 10.0 mi NE 5.8 mph - N/A   Clear
4:55 AM 49.1 °F - 39.4 °F 69% 29.82 in 10.0 mi NE 3.5 mph - N/A   Clear
5:15 AM 48.2 °F - 39.2 °F 71% 29.81 in 10.0 mi NE 4.6 mph - N/A   Clear
5:35 AM 47.8 °F - 39.0 °F 71% 29.82 in 10.0 mi NE 3.5 mph - N/A   Clear
5:55 AM 47.1 °F - 38.7 °F 72% 29.83 in 10.0 mi North 3.5 mph - N/A   Clear
6:15 AM 45.3 °F - 38.1 °F 76% 29.84 in 10.0 mi Calm Calm - N/A   Clear
6:35 AM 43.2 °F 40.5 °F 38.5 °F 84% 29.85 in 10.0 mi North 4.6 mph - N/A   Clear
6:55 AM 45.7 °F 42.7 °F 38.7 °F 76% 29.86 in 10.0 mi North 5.8 mph - N/A   Clear
7:15 AM 46.4 °F 44.3 °F 39.2 °F 76% 29.86 in 10.0 mi NNE 4.6 mph - N/A   Clear
7:35 AM 47.7 °F - 39.2 °F 72% 29.87 in 10.0 mi North 4.6 mph - N/A   Clear
7:55 AM 50.2 °F - 39.9 °F 68% 29.86 in 10.0 mi NNE 6.9 mph - N/A   Clear
8:15 AM 50.9 °F - 38.8 °F 63% 29.85 in 10.0 mi NE 9.2 mph - N/A   Clear
8:35 AM 52.3 °F - 38.8 °F 60% 29.85 in 10.0 mi NE 8.1 mph - N/A   Clear
8:55 AM 53.6 °F - 38.8 °F 57% 29.86 in 10.0 mi NNE 10.4 mph - N/A   Clear
9:15 AM 53.8 °F - 38.3 °F 56% 29.85 in 10.0 mi NNE 11.5 mph - N/A   Clear
9:35 AM 55.0 °F - 38.7 °F 54% 29.85 in 10.0 mi NNE 9.2 mph - N/A   Clear
9:55 AM 56.1 °F - 39.2 °F 53% 29.86 in 10.0 mi NE 10.4 mph - N/A   Clear
10:15 AM 57.6 °F - 39.4 °F 51% 29.86 in 10.0 mi NNE 11.5 mph - N/A   Clear
10:35 AM 59.5 °F - 39.7 °F 48% 29.86 in 10.0 mi NE 9.2 mph - N/A   Clear
10:55 AM 60.8 °F - 39.7 °F 46% 29.85 in 10.0 mi NE 10.4 mph - N/A   Clear
11:15 AM 62.6 °F - 39.6 °F 43% 29.85 in 10.0 mi NNE 12.7 mph 18.4 mph N/A   Clear
11:35 AM 63.1 °F - 38.8 °F 41% 29.85 in 10.0 mi NNE 11.5 mph 19.6 mph N/A   Clear
11:55 AM 64.4 °F - 39.2 °F 40% 29.84 in 10.0 mi NNE 12.7 mph 18.4 mph N/A   Clear
12:15 PM 66.2 °F - 39.4 °F 37% 29.85 in 10.0 mi NNE 12.7 mph 20.7 mph N/A   Clear
12:35 PM 66.4 °F - 38.5 °F 36% 29.85 in 10.0 mi North 10.4 mph 20.7 mph N/A   Clear
12:55 PM 68.2 °F - 39.9 °F 36% 29.85 in 10.0 mi ENE 11.5 mph 17.3 mph N/A   Clear
1:15 PM 68.2 °F - 39.4 °F 35% 29.85 in 10.0 mi NNE 11.5 mph 19.6 mph N/A   Clear
1:35 PM 69.8 °F - 39.6 °F 33% 29.85 in 10.0 mi NE 10.4 mph 18.4 mph N/A   Clear
1:55 PM 70.2 °F - 39.4 °F 33% 29.85 in 10.0 mi NNE 13.8 mph 17.3 mph N/A   Clear
2:15 PM 70.5 °F - 40.1 °F 33% 29.84 in 10.0 mi NNE 6.9 mph 17.3 mph N/A   Clear
2:35 PM 71.6 °F - 39.9 °F 32% 29.84 in 10.0 mi NNE 9.2 mph 16.1 mph N/A   Clear
2:55 PM 72.3 °F - 40.1 °F 31% 29.84 in 10.0 mi NNE 12.7 mph 17.3 mph N/A   Clear
3:15 PM 72.3 °F - 39.6 °F 30% 29.83 in 10.0 mi ENE 11.5 mph 17.3 mph N/A   Clear
3:35 PM 72.1 °F - 38.5 °F 29% 29.82 in 10.0 mi NNE 8.1 mph - N/A   Clear
3:55 PM 73.4 °F - 39.9 °F 30% 29.81 in 10.0 mi NE 9.2 mph 16.1 mph N/A   Clear
4:15 PM 74.3 °F - 39.2 °F 28% 29.81 in 10.0 mi ENE 10.4 mph 19.6 mph N/A   Clear
4:35 PM 73.6 °F - 38.5 °F 28% 29.80 in 10.0 mi East 12.7 mph 19.6 mph N/A   Clear
4:55 PM 73.8 °F - 38.3 °F 28% 29.80 in 10.0 mi ENE 10.4 mph 17.3 mph N/A   Clear
5:15 PM 74.1 °F - 37.6 °F 27% 29.79 in 10.0 mi East 12.7 mph 18.4 mph N/A   Clear
5:35 PM 73.2 °F - 37.8 °F 28% 29.79 in 10.0 mi ENE 11.5 mph 17.3 mph N/A   Clear
5:55 PM 72.5 °F - 37.9 °F 28% 29.79 in 10.0 mi ENE 12.7 mph - N/A   Clear
6:15 PM 72.5 °F - 38.1 °F 29% 29.79 in 10.0 mi East 9.2 mph - N/A   Clear
6:35 PM 71.8 °F - 38.3 °F 30% 29.79 in 10.0 mi ENE 10.4 mph 16.1 mph N/A   Clear
6:55 PM 71.6 °F - 38.5 °F 30% 29.77 in 10.0 mi ENE 10.4 mph 17.3 mph N/A   Clear
7:15 PM 71.1 °F - 38.3 °F 30% 29.77 in 10.0 mi ENE 10.4 mph 16.1 mph N/A   Clear
7:35 PM 70.2 °F - 38.7 °F 32% 29.77 in 10.0 mi ENE 8.1 mph - N/A   Clear
7:55 PM 69.8 °F - 38.3 °F 32% 29.77 in 10.0 mi East 8.1 mph - N/A   Clear
8:15 PM 68.9 °F - 38.7 °F 33% 29.78 in 10.0 mi East 8.1 mph - N/A   Clear
8:35 PM 67.5 °F - 38.8 °F 35% 29.78 in 10.0 mi East 6.9 mph - N/A   Clear
8:55 PM 66.6 °F - 39.4 °F 37% 29.79 in 10.0 mi East 5.8 mph - N/A   Clear
9:15 PM 65.5 °F - 40.1 °F 39% 29.79 in 10.0 mi East 4.6 mph - N/A   Clear
9:35 PM 64.8 °F - 40.1 °F 40% 29.80 in 10.0 mi East 5.8 mph - N/A   Clear
9:55 PM 63.5 °F - 40.5 °F 43% 29.80 in 10.0 mi East 6.9 mph - N/A   Clear
10:15 PM 63.1 °F - 40.6 °F 44% 29.80 in 10.0 mi East 6.9 mph - N/A   Clear
10:35 PM 62.8 °F - 41.0 °F 45% 29.80 in 10.0 mi East 8.1 mph - N/A   Clear
10:55 PM 62.2 °F - 41.2 °F 46% 29.81 in 10.0 mi East 6.9 mph - N/A   Clear
11:15 PM 61.0 °F - 41.7 °F 49% 29.80 in 10.0 mi East 6.9 mph - N/A   Clear
11:35 PM 60.8 °F - 41.9 °F 50% 29.80 in 10.0 mi East 6.9 mph - N/A   Clear
11:55 PM 60.1 °F - 42.1 °F 51% 29.79 in 10.0 mi East 5.8 mph - N/A   Clear